Location: Godzisko
(49.9648°N, 19.4576°E)
Time: 08:08:34
(UTC+00:00)

SL-16 R/B - Pass Details

Date: 20 April 2021
Orbit: 986 x 1006 km, 99.5° (Epoch: 06 May)

Event Time Altitude Azimuth Distance (km) Brightness Sun altitude
Exits shadow 00:48:09 44° 210° (SSW) 1,355 2.7 -22.5°
Maximum altitude 00:49:47 57° 259° (WSW) 1,179 2.6 -22.4°
Drops below altitude 10° 00:55:58 10° 337° (NNW) 2,794 5.3 -21.8°
Sets 00:58:32 0° 342° (NNW) 3,749 6.1 -21.5°
